Location: Poinsettia Observatory
(32.9673°N, 117.0346°W)
Time: 09:45:07
(UTC-07:00)

Daily predictions for brighter satellites

Satellite Brightness Start Highest point End
(mag) Time Altitude Azimuth Time Altitude Azimuth Time Altitude Azimuth
Cosmos 2278 Rocket 4.3 20:17:33 10° SW 20:22:36 33° WNW 20:27:41 10° N
Hubble Space Telescope 1.3 20:22:17 10° WSW 20:26:13 43° S 20:30:09 10° ESE
Cosmos 1455 3.9 20:23:48 10° NNW 20:27:13 34° W 20:30:38 10° SSW
Meteor 1-29 4.5 20:26:31 10° NE 20:29:03 19° E 20:31:33 10° SE
DELTA 2 R/B(2) 4.4 20:26:31 10° WSW 20:29:20 47° NNW 20:30:57 10° NE
Cosmos 1937 Rocket 4.1 20:25:31 10° SSE 20:30:05 34° E 20:34:41 10° NE
Cosmos 1315 Rocket 3.0 20:30:20 10° S 20:34:09 48° E 20:38:04 10° NNE
COSMOS 2455 4.0 20:30:11 10° SSE 20:34:35 22° ESE 20:39:01 10° ENE
Cosmos 2034 Rocket 4.1 20:30:59 10° N 20:37:04 55° E 20:43:04 10° SSE
ISS -2.0 20:35:57 10° SSE 20:37:32 13° SE 20:38:01 13° ESE
Cosmos 1464 Rocket 4.1 20:39:43 10° N 20:46:04 88° W 20:52:26 10° S
ATLAS 3B R/B 4.3 20:43:09 10° WSW 20:50:06 41° NW 20:56:52 10° NNE
Cosmos 2242 Rocket 3.6 20:45:52 10° N 20:50:21 71° E 20:54:45 10° SSE
Resurs 01 Rocket 2.9 20:52:26 10° S 20:56:35 41° W 21:00:47 10° NNW
YAOGAN 6 3.0 20:57:05 18° SE 20:59:37 48° ENE 21:03:12 10° N
Spot 2 Rocket 4.4 20:55:42 10° S 21:00:36 49° W 21:05:34 10° NNW
Cosmos 2082 Rocket 2.2 20:56:09 10° NNW 21:01:50 86° WSW 21:07:01 13° SSE
In-Cosmos 22 Rocket 4.3 20:57:47 10° S 21:03:30 84° W 21:09:21 10° N
Timation 2 Rocket 4.2 20:58:36 10° NNW 21:04:50 57° ENE 21:09:32 19° SE
ARGOS 4.5 21:02:34 17° ESE 21:05:09 24° ENE 21:09:19 10° NNE
Tiangong 2 3.9 21:03:34 10° NNW 21:05:30 15° N 21:07:25 10° NE
ERS-1 Rocket 3.7 21:03:12 19° SE 21:06:05 35° ENE 21:10:38 10° N
H-2A ROCKET BODY 1.8 21:05:16 10° WSW 21:07:46 46° S 21:11:44 19° ESE
Cosmos 1939 Rocket 3.0 21:05:37 11° S 21:09:31 78° W 21:13:40 10° NNW
Cosmos 1825 4.2 21:12:32 13° ENE 21:12:32 13° ENE 21:13:46 10° NE
GPS 2-04 Rocket1 2.3 21:08:20 10° WSW 21:12:00 87° NNW 21:14:27 19° ENE
Cosmos 1933 Rocket 4.1 21:10:12 10° SSW 21:14:26 58° W 21:18:44 10° N
OAO 2 Rocket 3.3 21:10:10 10° WNW 21:15:13 81° NNE 21:18:24 22° E
Cosmos 1933 3.6 21:13:16 10° NNW 21:17:16 68° W 21:20:32 15° S
Cosmos 1892 2.6 21:14:50 11° S 21:18:30 88° E 21:22:22 10° N
Cosmos 1833 Rocket 3.1 21:13:50 10° NNW 21:19:23 62° WSW 21:24:04 15° S
Cosmos 2344 4.3 21:13:00 10° SSE 21:19:24 28° ESE 21:25:50 10° NE
SAR-Lupe-1 4.4 21:18:19 34° ESE 21:19:24 46° ENE 21:22:51 10° N
Meteor 2-10 Rocket 4.0 21:14:17 10° NNW 21:20:04 72° W 21:25:47 10° S
Aureole 1 4.4 21:22:20 43° E 21:22:20 43° E 21:25:07 10° NNE
Cosmos 1862 Rocket 3.8 21:17:45 10° N 21:22:13 73° W 21:25:44 16° S
NOSS 3-2 (A) 4.2 21:18:59 10° SW 21:24:43 54° NW 21:31:00 10° NNE
Envisat 4.2 21:22:35 10° SSW 21:27:19 40° W 21:32:05 10° NNW
Cosmos 1408 4.1 21:28:14 22° ENE 21:28:14 22° ENE 21:30:27 10° NE
Helios 1B rocket 3.5 21:25:44 10° N 21:29:39 45° WNW 21:33:33 10° SSW
Cosmos 1346 Rocket 2.8 21:26:05 10° N 21:30:00 64° E 21:31:11 41° SE
Aurora 2 Rocket 3.7 21:27:36 10° WSW 21:31:00 22° SSW 21:31:07 22° SSW
USA 215 3.5 21:33:00 27° ESE 21:36:43 62° NE 21:43:11 10° NW
CZ-4B DEB 3.4 21:37:26 37° SW 21:38:05 45° W 21:40:54 10° NNW
Cosmos 1125 Rocket 4.0 21:37:40 36° SE 21:38:32 39° E 21:43:22 10° NNE
COSMOS 2487 3.9 21:36:52 10° NW 21:40:06 34° WSW 21:41:41 22° SSW
NOAA 11 4.1 21:39:19 31° SSE 21:42:03 83° ENE 21:47:33 10° N
Helios 1A 4.2 21:39:40 16° SSW 21:42:32 38° W 21:46:27 10° NNW
NOSS 3-2 (C) 4.2 21:37:03 10° SW 21:42:49 53° NW 21:49:05 10° NNE
Cosmos 372 Rocket 4.5 21:46:40 37° E 21:46:40 37° E 21:51:16 10° NE
H-2A R/B 2.8 21:46:32 35° E 21:47:43 39° ENE 21:52:42 10° N
Cosmos 1943 Rocket 2.5 21:47:03 40° SE 21:47:45 42° ESE 21:52:59 10° NE
MetOp-A 4.0 21:45:56 37° SSE 21:48:06 80° ENE 21:53:28 10° N
Delta 168 4.1 21:46:34 10° WSW 21:50:43 37° S 21:50:43 37° S
Cosmos 1606 3.8 21:50:41 10° NNE 21:53:21 32° NE 21:53:21 32° NE
Cosmos 2369 Rocket 2.1 21:48:37 10° SSW 21:54:15 87° WNW 21:59:57 10° NNE
Cosmos 1703 Rocket 3.5 21:54:14 10° N 21:58:39 79° W 21:59:31 57° SSW
Shenzhou-11 Module 4.1 21:56:55 10° NW 21:59:22 22° NNE 21:59:22 22° NNE
Cosmos 1782 3.2 21:57:27 10° N 22:00:50 49° NE 22:00:50 49° NE
Okean 1-7 2.9 21:58:14 10° N 22:02:38 74° E 22:02:47 73° ESE
DNEPR-1 R/B 3.8 22:01:27 42° S 22:03:08 67° ESE 22:07:52 10° NE
Hubble Space Telescope 2.6 22:03:40 10° WSW 22:05:39 21° SW 22:05:39 21° SW
Meteor 2-6 Rocket 4.3 22:04:12 10° N 22:10:06 64° E 22:11:08 55° SE
Cosmos 1733 Rocket 4.5 22:12:04 26° NE 22:12:04 26° NE 22:14:21 10° NNE
CENTAUR R/B 2.3 22:06:43 19° SSW 22:11:03 82° ESE 22:17:38 10° NNE
Cosmos 1869 Rocket 4.4 22:11:46 30° SW 22:13:23 45° W 22:17:33 10° N
ISS -1.1 22:10:37 10° WSW 22:11:08 14° WSW 22:11:08 14° WSW
Cosmos 2221 Rocket 3.6 22:11:13 10° N 22:15:38 74° W 22:15:47 73° WSW
Milstar 3 3.2 22:09:47 10° WSW 22:19:49 51° S 22:20:57 48° SE
COSMOS 2455 3.8 22:14:20 10° SW 22:20:06 47° WNW 22:25:54 10° NNE
Landsat 7 4.2 22:20:52 50° NE 22:20:52 50° NE 22:25:02 10° N
DMSP B5D2-2 3.9 22:23:01 10° NNE 22:28:15 84° ESE 22:28:20 84° SE
SPOT 5 3.4 22:30:24 51° SW 22:31:16 58° W 22:36:32 10° NNW
GEOS 3 Rocket 3.8 22:32:32 59° ENE 22:32:35 59° NE 22:37:42 10° NNW
ATLAS 5 CENTAUR R/B 3.4 22:30:01 10° N 22:35:31 34° NE 22:36:19 33° ENE
Terra 2.6 22:36:30 44° NE 22:36:30 44° NE 22:40:09 10° N
Cosmos 1092 Rocket 4.2 22:42:32 55° ENE 22:42:32 55° ENE 22:48:00 10° NNE
Tiangong 2 4.1 22:40:05 10° NW 22:41:06 17° NW 22:41:06 17° NW
Cosmos 158 Rocket 4.2 22:39:13 10° NNW 22:43:12 58° N 22:43:12 58° N
ARGOS 4.2 22:44:05 33° WSW 22:45:08 36° W 22:50:03 10° NNW
SPOT 1/Viking Rocket 3.9 22:45:28 56° WSW 22:45:31 56° W 22:50:38 10° NNW
Cosmos 1048 Rocket 4.2 22:40:18 10° NNW 22:45:01 68° NNE 22:45:01 68° NNE
Nadezhda 4 Rocket 3.8 22:46:20 78° SSW 22:46:48 88° W 22:53:02 10° N
Cosmos 1825 4.2 22:47:24 25° WNW 22:47:24 25° WNW 22:50:11 10° NNW
Cosmos 1656 Rocket 4.4 22:56:17 43° NE 22:56:17 43° NE 22:59:57 10° NNE
Lacrosse 5 rocket 3.5 22:55:14 21° NNW 22:55:14 21° NNW 22:57:39 10° N
H-2A R/B 3.8 23:00:48 26° N 23:00:48 26° N 23:02:43 10° N
USA 215 4.4 23:20:21 29° WSW 23:20:21 29° WSW 23:25:27 10° WNW
Lacrosse 4 Rocket 3.4 23:16:12 10° NNW 23:18:27 29° NNW 23:18:27 29° NNW
H-2A R/B 4.0 23:27:10 22° W 23:27:10 22° W 23:31:16 10° NW
Cosmos 1943 Rocket 4.3 23:28:29 14° W 23:31:36 22° WNW 23:35:52 10° N
